KL7GG Weather Reports


Display with metric or nautical units.
time (UTC)temp
F
wind
direction
speed
MPH
gust
MPH
rain 1hr
in
rain 24hr
in
rain mn
in
humidity
%
barometer
mb
20260831075721 47 0 0.0 0.0 0.00 0.00 0.00 93 1003.7
20260831074217 47 0 0.0 0.0 0.00 0.00 0.00 93 1003.9
20260831072713 47 0 0.0 0.0 0.00 0.00 0.00 93 1004.1
20260831071209 47 0 0.0 0.0 0.00 0.00 0.00 93 1004.4
20260831065705 47 0 0.0 0.0 0.00 0.00 0.00 92 1004.4
20260831064201 48 0 0.0 0.0 0.00 0.00 0.00 92 1004.6
20260831062656 48 0 0.0 0.0 0.00 0.00 0.00 92 1004.9
20260831061153 48 0 0.0 0.0 0.00 0.00 0.00 92 1005.0
20260831055649 48 0 0.0 0.0 0.00 0.00 0.00 91 1005.2
20260831054145 48 0 0.0 0.0 0.00 0.00 0.00 90 1005.4
20260831052642 49 0 0.0 0.0 0.00 0.00 0.00 89 1005.5
20260831051136 49 0 0.0 0.0 0.00 0.00 0.00 89 1005.6
20260831045633 49 0 0.0 0.0 0.00 0.00 0.00 88 1005.6
20260831044127 49 0 0.0 0.0 0.00 0.00 0.00 87 1005.7
20260831041117 50 0 0.0 0.0 0.00 0.00 0.00 84 1006.0
20260831035612 51 0 0.0 0.0 0.00 0.00 0.00 84 1006.1
20260831034109 51 0 0.0 0.0 0.00 0.00 0.00 83 1006.3
20260831032605 51 0 0.0 0.0 0.00 0.00 0.00 82 1006.8
20260831031059 51 0 0.0 0.0 0.00 0.00 0.00 81 1007.2
20260831025556 52 0 0.0 0.0 0.00 0.00 0.00 81 1007.5
20260831024051 53 0 0.0 0.0 0.00 0.00 0.00 78 1007.7
20260831022546 53 0 0.0 0.0 0.00 0.00 0.00 73 1008.0
20260831021043 55 0 0.0 3.0 0.00 0.00 0.00 69 1008.3
20260831015538 55 0 0.0 4.0 0.00 0.00 0.00 66 1008.2
20260831012532 54 0 0.0 9.0 0.00 0.00 0.00 69 1008.4
20260831011026 55 316 1.0 9.0 0.00 0.00 0.00 68 1008.4
20260831005523 55 0 0.0 3.0 0.00 0.00 0.00 69 1008.6
20260831004018 55 0 0.0 5.0 0.00 0.00 0.00 65 1008.7
20260831002515 56 0 0.0 4.0 0.00 0.00 0.00 62 1008.8
20260831001011 56 0 0.0 9.0 0.00 0.00 0.00 64 1009.2
20260830235504 56 3 1.0 10.0 0.00 0.00 0.00 61 1009.2
20260830234001 57 310 1.0 10.0 0.00 0.00 0.00 62 1009.2
20260830232456 57 0 0.0 6.0 0.00 0.00 0.00 60 1009.5
20260830230949 57 0 0.0 4.0 0.00 0.00 0.00 60 1009.5
20260830225444 57 310 1.0 7.0 0.00 0.00 0.00 62 1009.6
20260830223941 57 306 5.0 10.0 0.00 0.00 0.00 59 1009.6
20260830222437 57 322 2.0 12.0 0.00 0.00 0.00 57 1009.7
20260830220932 57 347 1.0 11.0 0.00 0.00 0.00 58 1009.8
20260830213925 57 0 0.0 7.0 0.00 0.00 0.00 58 1009.8
20260830212421 57 0 0.0 5.0 0.00 0.00 0.00 61 1009.8
20260830210918 56 0 0.0 7.0 0.00 0.00 0.00 63 1010.1
20260830205413 56 0 0.0 7.0 0.00 0.00 0.00 62 1010.2
20260830203908 56 0 0.0 5.0 0.00 0.00 0.00 61 1010.3
20260830202405 56 0 0.0 1.0 0.00 0.00 0.00 64 1010.4
20260830200901 55 0 0.0 4.0 0.00 0.00 0.00 67 1010.6
20260830193852 54 0 0.0 2.0 0.00 0.00 0.00 67 1011.0
20260830192349 53 0 0.0 0.0 0.00 0.00 0.00 69 1011.2
20260830190844 52 0 0.0 0.0 0.00 0.00 0.00 78 1011.3
20260830185340 50 0 0.0 0.0 0.00 0.00 0.00 81 1011.6
20260830183837 48 0 0.0 2.0 0.00 0.00 0.00 86 1011.7
20260830182332 47 0 0.0 0.0 0.00 0.00 0.00 90 1011.8
20260830180829 45 0 0.0 0.0 0.00 0.00 0.00 94 1011.8
20260830175324 43 0 0.0 0.0 0.00 0.00 0.00 94 1012.2
20260830173821 41 0 0.0 0.0 0.00 0.00 0.00 93 1012.4
20260830172316 41 0 0.0 0.0 0.00 0.00 0.00 93 1012.4
20260830170813 40 0 0.0 0.0 0.00 0.00 0.00 94 1012.3
20260830165308 39 0 0.0 0.0 0.00 0.00 0.00 92 1012.3
20260830163803 39 0 0.0 0.0 0.00 0.00 0.00 92 1012.1
20260830160752 39 0 0.0 0.0 0.00 0.00 0.00 92 1012.2
20260830155249 39 0 0.0 0.0 0.00 0.00 0.00 92 1012.3
20260830153744 39 0 0.0 0.0 0.00 0.00 0.00 92 1012.0
20260830150737 39 0 0.0 0.0 0.00 0.00 0.00 91 1011.8
20260830145233 39 0 0.0 0.0 0.00 0.00 0.00 91 1011.7
20260830143730 39 0 0.0 0.0 0.00 0.00 0.00 90 1011.7
20260830142226 39 0 0.0 0.0 0.00 0.00 0.00 90 1011.7
20260830140722 40 0 0.0 0.0 0.00 0.00 0.00 90 1011.7
20260830135216 40 0 0.0 0.0 0.00 0.00 0.00 90 1011.7
20260830133713 40 0 0.0 0.0 0.00 0.00 0.00 90 1011.7
20260830132209 41 0 0.0 0.0 0.00 0.00 0.00 90 1011.6
20260830125201 41 0 0.0 0.0 0.00 0.00 0.00 90 1011.7
20260830123657 41 0 0.0 0.0 0.00 0.00 0.00 88 1011.9
20260830122153 42 0 0.0 0.0 0.00 0.00 0.00 88 1011.9
20260830120648 42 0 0.0 0.0 0.00 0.01 0.00 87 1011.8
20260830115144 43 0 0.0 0.0 0.00 0.03 0.00 88 1011.7
20260830113640 43 0 0.0 0.0 0.00 0.03 0.00 86 1011.6
20260830112137 43 0 0.0 0.0 0.00 0.03 0.00 86 1011.4
20260830110632 44 0 0.0 0.0 0.00 0.03 0.00 85 1011.2
20260830105127 45 0 0.0 0.0 0.00 0.03 0.00 84 1011.0
20260830103622 45 0 0.0 0.0 0.00 0.04 0.00 83 1011.0
20260830102119 46 0 0.0 0.0 0.00 0.05 0.00 83 1010.8
20260830100615 47 0 0.0 0.0 0.00 0.05 0.00 82 1010.7
20260830095111 47 0 0.0 0.0 0.00 0.06 0.00 80 1010.6
20260830093607 48 0 0.0 0.0 0.00 0.06 0.00 80 1010.6
20260830092102 49 0 0.0 0.0 0.00 0.06 0.00 79 1010.5
20260830090559 50 0 0.0 0.0 0.00 0.06 0.00 77 1010.2
20260830085054 51 0 0.0 0.0 0.00 0.06 0.00 76 1010.1
20260830083551 51 0 0.0 0.0 0.00 0.06 0.06 76 1010.0
20260830082046 52 0 0.0 0.0 0.00 0.06 0.06 77 1010.0
20260830080543 52 0 0.0 0.0 0.00 0.06 0.06 75 1009.8